Location: *
(50.8160°S, 176.0219°W)
Time: 23:11:45
(UTC+00:00)

CZ-2D R/B - Pass Details

Date: 19 May 2026
Orbit: 525 x 592 km, 98.0° (Epoch: 11 June)

Event Time Altitude Azimuth Distance (km) Brightness Sun altitude
Rises 18:10:14 0° 22° (NNE) 2,835 7.6 -10.8°
Reaches altitude 10° 18:12:24 10° 24° (NNE) 1,938 6.7 -10.5°
Maximum altitude 18:16:36 71° 107° (ESE) 637 3.8 -9.8°
Drops below altitude 10° 18:20:48 10° 190° (S) 1,940 5.8 -9.2°
Sets 18:22:59 0° 192° (SSW) 2,839 6.6 -8.9°
